Showing default

QIANFAN-21, 61554

Orbit data source: Space-Track

QIANFAN-21, 61554 is a Chinese payload satellite in LEO that was launched on Tue, 15 Oct 2024 UTC via a CHANG ZHENG 6A launch vehicle from the Taiyaun Space Center, China (TSC). Payload-class satellites include a variety of spacecraft equipped with specific instruments for various scientific and technological missions. These include communications satellites like Starlink; space stations such as the ISS; scientific satellites like the Hubble; Earth observation satellites from companies like Planet Labs, Umbra, and HawkEye 360; GPS; miniature CubeSats for education and research; and military/defense satellites.

Loading next visibility...
Identifier
61554, 2024-185C
Orbit
LEO
Country
Flag of CNCN / PRC
Related business
Manufacturer
GESIH/SECM
Mission
Partially operational Commercial Communications
Bus & Motor
QIANFAN, Unknown motor
Mass
267 kg wet, ~267 kg dry
Launch date (UTC)
2024-10-15 (11 months ago)
Launch vehicle
CHANG ZHENG 6A
Launch site
Taiyaun Space Center, China (TSC)
Object type
Payload
Rocket body
Debris
Shape & HBR
Box + 1 Pan, 5.0 m
Radar Cross Section
13.200 m², Large (>1 m²)

Expand to show TLE details & history
Last TLE update: 18 hours ago

TLE from 18 hours ago
0 QIANFAN-21
1 61554U 24185C   25260.22884971  .00000583  00000-0  25535-3 0  9996
2 61554  88.9668  87.1198 0008634 289.0720  70.9536 14.22416859 57678
Epoch: 2025-09-17T05:29Z
TLE epoch observation values (Epoch: 2025-09-17T05:29:32.614Z)
Latitude
-0.00005°
Longitude
8.32611°
Altitude
818.224 km
Speed
7.445 km/s
True Right ascension
05h 48m 28s
True Declination
0° 00' 00"
Sunlit
Object was in daylight at epoch
Visualization orbit readout
Latitude
Unknown
Longitude
Unknown
Altitude
Unknown
Speed
Unknown
Apparent Right ascension
Unknown
Apparent Declination
Unknown
Sunlit
N/A
Visualization observer readout
Local Sidereal Time
16:14:07
Azimuth
Unknown
Elevation
Unknown
Doppler factor
Unknown
Orbital elements
Apogee altitude
820.348 km
Perigee altitude
807.929 km
Semi-major axis
7,192.276 km
Eccentricity
0.00086
Inclination
88.9668°
RAAN
87.1198°
Arg. of periapsis
289.072°
True anomaly
71.04715°
Mean anomaly
70.9536°
Eccentric anomaly
71.00037°
Mean motion
3.55831 °/min
Orbital period
101.17 mins
BSTAR
0.00025535
Loading maneuver chart data...
Computing Atmospheric mass density...
Loading historical data...
Loading historical data...
Loading historical data...
Loading historical data...
Loading historical data...
Loading historical data...
Loading historical data...

Documentation

Showing up to 5 results
|